IZ1GCT Weather Reports


time (UTC)temp
C
wind
direction
speed
KPH
gust
KPH
rain 1hr
cm
rain 24hr
cm
rain mn
cm
humidity
%
barometer
mb
20260906085412 30 135 8.0 11.3 0.00 0.00 0.00 31 1026.6
20260906084912 30 112 8.0 11.3 0.00 0.00 0.00 30 1026.6
20260906084412 30 133 4.8 12.9 0.00 0.00 0.00 30 1026.6
20260906083912 30 158 1.6 3.2 0.00 0.00 0.00 30 1026.6
20260906083411 30 135 1.6 1.6 0.00 0.00 0.00 27 1026.6
20260906082913 30 135 1.6 4.8 0.00 0.00 0.00 26 1026.7
20260906082412 30 135 1.6 3.2 0.00 0.00 0.00 26 1026.7
20260906081911 30 135 1.6 1.6 0.00 0.00 0.00 27 1026.6
20260906081413 30 135 1.6 3.2 0.00 0.00 0.00 28 1026.7
20260906080912 29 135 0.0 1.6 0.00 0.00 0.00 29 1026.5
20260906080411 29 135 3.2 4.8 0.00 0.00 0.00 30 1026.6
20260906075913 30 135 1.6 4.8 0.00 0.00 0.00 28 1026.7
20260906075412 30 135 1.6 3.2 0.00 0.00 0.00 30 1026.6
20260906074911 28 135 0.0 0.0 0.00 0.00 0.00 30 1026.5
20260906074413 27 135 1.6 3.2 0.00 0.00 0.00 30 1026.6
20260906073912 27 135 3.2 4.8 0.00 0.00 0.00 31 1026.6
20260906073411 27 135 3.2 8.0 0.00 0.00 0.00 34 1026.7
20260906072913 26 135 9.7 9.7 0.00 0.00 0.00 34 1026.7
20260906072412 26 135 3.2 9.7 0.00 0.00 0.00 35 1026.7
20260906071911 26 135 3.2 8.0 0.00 0.00 0.00 34 1026.6
20260906071413 26 135 4.8 8.0 0.00 0.00 0.00 35 1026.5
20260906070911 26 135 4.8 9.7 0.00 0.00 0.00 35 1026.6
20260906070413 25 135 9.7 9.7 0.00 0.00 0.00 35 1026.5
20260906065912 25 135 8.0 9.7 0.00 0.00 0.00 36 1026.5
20260906065412 25 135 4.8 9.7 0.00 0.00 0.00 36 1026.7
20260906064912 25 135 8.0 9.7 0.00 0.00 0.00 37 1026.5
20260906064411 25 135 4.8 11.3 0.00 0.00 0.00 37 1026.5
20260906063913 25 135 8.0 9.7 0.00 0.00 0.00 38 1026.4
20260906063412 25 135 9.7 12.9 0.00 0.00 0.00 37 1026.4
20260906062912 24 135 4.8 9.7 0.00 0.00 0.00 38 1026.5
20260906062411 24 135 4.8 9.7 0.00 0.00 0.00 38 1026.5
20260906061912 23 135 8.0 9.7 0.00 0.00 0.00 39 1026.5
20260906061412 23 135 4.8 9.7 0.00 0.00 0.00 40 1026.4
20260906060911 23 135 4.8 9.7 0.00 0.00 0.00 40 1026.4
20260906060413 23 135 3.2 8.0 0.00 0.00 0.00 42 1026.2
20260906055912 22 135 0.0 0.0 0.00 0.00 0.00 47 1026.3
20260906055412 22 135 1.6 3.2 0.00 0.00 0.00 47 1026.3
20260906054913 21 156 3.2 4.8 0.00 0.00 0.00 49 1026.2
20260906054412 20 158 1.6 3.2 0.00 0.00 0.00 50 1026.1
20260906053912 20 158 0.0 1.6 0.00 0.00 0.00 51 1026.0
20260906053411 20 158 1.6 4.8 0.00 0.00 0.00 51 1026.0
20260906052913 20 135 3.2 8.0 0.00 0.00 0.00 50 1025.9
20260906052412 19 135 3.2 4.8 0.00 0.00 0.00 51 1025.9
20260906051911 20 135 1.6 3.2 0.00 0.00 0.00 51 1025.9
20260906051413 20 158 1.6 1.6 0.00 0.00 0.00 50 1025.8
20260906050912 20 139 4.8 4.8 0.00 0.00 0.00 49 1025.6
20260906050412 20 145 4.8 9.7 0.00 0.00 0.00 49 1025.7
20260906045911 20 135 3.2 8.0 0.00 0.00 0.00 50 1025.7
20260906045412 20 135 3.2 4.8 0.00 0.00 0.00 50 1025.5
20260906044912 20 158 1.6 4.8 0.00 0.00 0.00 50 1025.5
20260906044411 20 145 1.6 4.8 0.00 0.00 0.00 50 1025.5
20260906043913 20 140 3.2 4.8 0.00 0.00 0.00 51 1025.4
20260906043412 19 153 1.6 3.2 0.00 0.00 0.00 51 1025.4
20260906042912 19 155 3.2 4.8 0.00 0.00 0.00 51 1025.2
20260906042411 19 135 3.2 4.8 0.00 0.00 0.00 50 1025.2
20260906041912 20 158 1.6 3.2 0.00 0.00 0.00 51 1025.3
20260906041412 20 153 3.2 4.8 0.00 0.00 0.00 51 1025.1
20260906040911 18 158 1.6 4.8 0.00 0.00 0.00 52 1025.1
20260906040413 19 135 0.0 1.6 0.00 0.00 0.00 52 1025.2
20260906035413 19 148 1.6 1.6 0.00 0.00 0.00 51 1025.1
20260906034912 19 153 4.8 11.3 0.00 0.00 0.00 52 1025.1
20260906034412 19 135 3.2 4.8 0.00 0.00 0.00 52 1025.2
20260906033911 19 143 0.0 1.6 0.00 0.00 0.00 51 1025.1
20260906033412 19 152 4.8 4.8 0.00 0.00 0.00 51 1025.2
20260906032912 19 158 4.8 4.8 0.00 0.00 0.00 51 1025.1
20260906032411 20 135 3.2 4.8 0.00 0.00 0.00 50 1025.0
20260906031913 20 158 4.8 8.0 0.00 0.00 0.00 50 1025.1
20260906031412 20 158 1.6 3.2 0.00 0.00 0.00 49 1025.0
20260906030911 20 154 4.8 8.0 0.00 0.00 0.00 47 1024.9
20260906030413 21 154 3.2 8.0 0.00 0.00 0.00 46 1025.0
20260906025912 21 135 3.2 4.8 0.00 0.00 0.00 44 1025.0
20260906025412 22 194 1.6 8.0 0.00 0.00 0.00 43 1024.9
20260906024913 22 135 8.0 11.3 0.00 0.00 0.00 43 1024.9
20260906024412 21 135 4.8 8.0 0.00 0.00 0.00 44 1024.8
20260906023911 21 254 3.2 8.0 0.00 0.00 0.00 45 1024.7
20260906023413 21 225 1.6 1.6 0.00 0.00 0.00 45 1024.8
20260906022911 21 250 1.6 3.2 0.00 0.00 0.00 44 1024.7
20260906022413 22 135 3.2 4.8 0.00 0.00 0.00 44 1024.6
20260906021912 21 242 8.0 11.3 0.00 0.00 0.00 45 1024.7
20260906021412 21 266 3.2 4.8 0.00 0.00 0.00 47 1024.6
20260906020911 21 225 1.6 3.2 0.00 0.00 0.00 49 1024.6
20260906020412 20 135 4.8 9.7 0.00 0.00 0.00 50 1024.5
20260906015911 20 139 4.8 8.0 0.00 0.00 0.00 51 1024.6
20260906015413 20 187 8.0 12.9 0.00 0.00 0.00 50 1024.5
20260906014912 20 180 4.8 9.7 0.00 0.00 0.00 51 1024.4
20260906014412 20 95 1.6 3.2 0.00 0.00 0.00 51 1024.6
20260906013911 20 180 3.2 8.0 0.00 0.00 0.00 52 1024.5
20260906013412 20 215 0.0 3.2 0.00 0.00 0.00 51 1024.6
20260906012911 20 45 0.0 1.6 0.00 0.00 0.00 50 1024.5
20260906012413 20 45 1.6 3.2 0.00 0.00 0.00 50 1024.5
20260906011912 20 210 4.8 8.0 0.00 0.00 0.00 50 1024.6
20260906011412 20 270 3.2 4.8 0.00 0.00 0.00 50 1024.5
20260906010911 21 240 0.0 1.6 0.00 0.00 0.00 49 1024.5
20260906010413 21 225 0.0 4.8 0.00 0.00 0.00 49 1024.5
20260906005911 21 225 4.8 9.7 0.00 0.00 0.00 48 1024.3
20260906005412 21 135 3.2 8.0 0.00 0.00 0.00 50 1024.3
20260906004912 21 135 8.0 9.7 0.00 0.00 0.00 48 1024.2
20260906004411 21 135 0.0 1.6 0.00 0.00 0.00 47 1024.4
20260906003913 21 135 1.6 3.2 0.00 0.00 0.00 49 1024.4
20260906003411 21 158 3.2 4.8 0.00 0.00 0.00 48 1024.4
20260906002913 21 145 3.2 4.8 0.00 0.00 0.00 50 1024.4
20260906002412 21 158 4.8 4.8 0.00 0.00 0.00 50 1024.3
20260906001911 21 315 3.2 4.8 0.00 0.00 0.00 48 1024.4
20260906001411 22 315 1.6 3.2 0.00 0.00 0.00 47 1024.3
20260906000911 22 326 3.2 4.8 0.00 0.00 0.00 42 1024.4
20260906000413 22 158 8.0 11.3 0.00 0.00 0.00 46 1024.2
20260905235912 22 225 1.6 3.2 0.00 0.00 0.00 43 1024.1
20260905235411 22 180 8.0 8.0 0.00 0.00 0.00 42 1024.1
20260905234911 22 135 1.6 4.8 0.00 0.00 0.00 41 1024.2
20260905234412 23 217 4.8 8.0 0.00 0.00 0.00 41 1024.1
20260905233912 23 180 4.8 8.0 0.00 0.00 0.00 39 1023.9
20260905233411 24 135 1.6 3.2 0.00 0.00 0.00 38 1023.9
20260905232911 24 135 3.2 4.8 0.00 0.00 0.00 36 1023.9
20260905232412 24 135 0.0 0.0 0.00 0.00 0.00 37 1023.9
20260905231912 24 135 1.6 4.8 0.00 0.00 0.00 40 1024.0
20260905231411 25 68 3.2 8.0 0.00 0.00 0.00 40 1024.0
20260905230912 25 135 0.0 0.0 0.00 0.00 0.00 38 1024.0
20260905230411 25 107 1.6 4.8 0.00 0.00 0.00 36 1024.0
20260905225912 26 45 3.2 4.8 0.00 0.00 0.00 32 1024.0
20260905225412 26 45 1.6 3.2 0.00 0.00 0.00 30 1023.9
20260905224911 27 355 1.6 3.2 0.00 0.00 0.00 30 1024.0
20260905224412 27 270 3.2 4.8 0.00 0.00 0.00 26 1023.9
20260905223912 27 242 4.8 8.0 0.00 0.00 0.00 26 1023.9
20260905223411 27 253 9.7 14.5 0.00 0.00 0.00 26 1023.9
20260905222911 27 168 8.0 16.1 0.00 0.00 0.00 30 1023.9
20260905222412 27 180 4.8 9.7 0.00 0.00 0.00 30 1023.8
20260905221912 26 160 1.6 8.0 0.00 0.00 0.00 31 1023.8
20260905221411 26 270 0.0 1.6 0.00 0.00 0.00 31 1023.8
20260905220913 26 270 3.2 4.8 0.00 0.00 0.00 32 1023.7
20260905220412 26 270 3.2 4.8 0.00 0.00 0.00 31 1023.5
20260905215912 27 270 3.2 4.8 0.00 0.00 0.00 30 1023.7
20260905215411 27 270 1.6 4.8 0.00 0.00 0.00 27 1023.7
20260905214912 27 270 8.0 11.3 0.00 0.00 0.00 26 1023.7
20260905214412 27 245 11.3 16.1 0.00 0.00 0.00 25 1023.7
20260905213911 28 225 8.0 14.5 0.00 0.00 0.00 25 1023.6
20260905213411 28 225 12.9 19.3 0.00 0.00 0.00 24 1023.6
20260905212912 28 284 9.7 12.9 0.00 0.00 0.00 24 1023.6
20260905212412 28 348 4.8 16.1 0.00 0.00 0.00 24 1023.6
20260905211911 28 243 8.0 12.9 0.00 0.00 0.00 24 1023.4
20260905211411 28 258 11.3 16.1 0.00 0.00 0.00 24 1023.5
20260905210912 28 135 8.0 11.3 0.00 0.00 0.00 24 1023.5
20260905210412 28 135 4.8 9.7 0.00 0.00 0.00 23 1023.5
20260905205911 28 135 8.0 9.7 0.00 0.00 0.00 24 1023.5
20260905205412 28 135 9.7 16.1 0.00 0.00 0.00 24 1023.5
20260905204912 28 135 8.0 9.7 0.00 0.00 0.00 23 1023.6
20260905204411 28 135 19.3 25.7 0.00 0.00 0.00 23 1023.4
20260905203912 28 135 11.3 14.5 0.00 0.00 0.00 24 1023.3
20260905203412 28 135 12.9 20.9 0.00 0.00 0.00 24 1023.3
20260905202911 28 135 11.3 14.5 0.00 0.00 0.00 23 1023.3
20260905202412 28 135 8.0 9.7 0.00 0.00 0.00 24 1023.4
20260905201912 28 135 8.0 12.9 0.00 0.00 0.00 24 1023.3
20260905201411 28 135 4.8 8.0 0.00 0.00 0.00 24 1023.1
20260905200913 28 135 8.0 9.7 0.00 0.00 0.00 24 1023.3
20260905200412 28 135 8.0 14.5 0.00 0.00 0.00 24 1023.1
20260905195911 28 135 14.5 19.3 0.00 0.00 0.00 24 1023.0
20260905195411 28 135 9.7 12.9 0.00 0.00 0.00 24 1022.8
20260905194912 29 135 4.8 9.7 0.00 0.00 0.00 23 1022.8
20260905194411 29 135 9.7 12.9 0.00 0.00 0.00 23 1022.7
20260905193911 29 135 4.8 9.7 0.00 0.00 0.00 23 1022.6
20260905193412 29 135 11.3 19.3 0.00 0.00 0.00 23 1022.6
20260905192912 29 135 4.8 9.7 0.00 0.00 0.00 23 1022.5
20260905192412 29 158 4.8 9.7 0.00 0.00 0.00 23 1022.3
20260905191911 29 135 3.2 8.0 0.00 0.00 0.00 23 1022.3
20260905191411 29 135 1.6 1.6 0.00 0.00 0.00 23 1022.4
20260905190911 29 135 4.8 8.0 0.00 0.00 0.00 23 1022.1
20260905190412 29 138 3.2 4.8 0.00 0.00 0.00 23 1022.0
20260905185912 30 135 1.6 1.6 0.00 0.00 0.00 23 1021.9
20260905185411 30 135 1.6 4.8 0.00 0.00 0.00 23 1021.8
20260905184912 30 130 3.2 8.0 0.00 0.00 0.00 22 1021.7
20260905184411 30 144 3.2 8.0 0.00 0.00 0.00 22 1021.6
20260905183912 30 135 3.2 9.7 0.00 0.00 0.00 23 1021.5
20260905183412 30 135 3.2 8.0 0.00 0.00 0.00 22 1021.4
20260905182911 30 158 3.2 9.7 0.00 0.00 0.00 22 1021.3
20260905182412 30 135 3.2 9.7 0.00 0.00 0.00 22 1021.4
20260905181912 30 135 9.7 14.5 0.00 0.00 0.00 21 1021.4
20260905181412 31 155 3.2 4.8 0.00 0.00 0.00 22 1021.2
20260905180912 31 146 3.2 8.0 0.00 0.00 0.00 22 1021.3
20260905180411 31 225 3.2 8.0 0.00 0.00 0.00 21 1021.0
20260905175912 31 135 8.0 9.7 0.00 0.00 0.00 21 1021.0
20260905175411 31 135 4.8 12.9 0.00 0.00 0.00 21 1021.0
20260905174911 31 135 14.5 20.9 0.00 0.00 0.00 21 1021.0
20260905174412 31 158 14.5 22.5 0.00 0.00 0.00 21 1020.8
20260905173911 31 151 8.0 12.9 0.00 0.00 0.00 21 1020.9
20260905173411 32 225 9.7 14.5 0.00 0.00 0.00 21 1020.8
20260905172911 32 264 8.0 9.7 0.00 0.00 0.00 21 1020.8
20260905172411 32 270 19.3 25.7 0.00 0.00 0.00 21 1020.7
20260905171912 32 180 14.5 24.1 0.00 0.00 0.00 21 1020.7
20260905171412 32 225 9.7 16.1 0.00 0.00 0.00 20 1020.7
20260905170912 32 301 11.3 16.1 0.00 0.00 0.00 20 1020.7
20260905170411 32 270 11.3 24.1 0.00 0.00 0.00 20 1020.7
20260905165911 32 270 19.3 22.5 0.00 0.00 0.00 20 1020.7
20260905165412 33 301 14.5 32.2 0.00 0.00 0.00 20 1020.8
20260905164912 33 270 12.9 20.9 0.00 0.00 0.00 20 1020.6
20260905164411 33 315 20.9 25.7 0.00 0.00 0.00 20 1020.7
20260905163913 33 315 12.9 19.3 0.00 0.00 0.00 20 1020.7
20260905163412 33 270 16.1 27.4 0.00 0.00 0.00 20 1020.7
20260905162911 33 270 11.3 12.9 0.00 0.00 0.00 20 1020.7
20260905162411 33 270 14.5 20.9 0.00 0.00 0.00 20 1020.7
20260905161912 33 312 8.0 11.3 0.00 0.00 0.00 20 1020.6
20260905161411 34 285 16.1 25.7 0.00 0.00 0.00 20 1020.7
20260905160911 34 287 14.5 32.2 0.00 0.00 0.00 20 1020.6
20260905160412 34 315 22.5 27.4 0.00 0.00 0.00 11 1020.5
20260905155410 34 225 11.3 16.1 0.00 0.00 0.00 20 1020.5
20260905154910 33 225 12.9 19.3 0.00 0.00 0.00 20 1020.6
20260905154411 33 178 16.1 22.5 0.00 0.00 0.00 20 1020.5
20260905153910 34 197 22.5 37.0 0.00 0.00 0.00 11 1020.5
20260905153410 34 270 14.5 20.9 0.00 0.00 0.00 11 1020.4
20260905152910 34 278 20.9 32.2 0.00 0.00 0.00 20 1020.4
20260905152410 34 295 14.5 20.9 0.00 0.00 0.00 11 1020.5
20260905151911 33 357 19.3 27.4 0.00 0.00 0.00 13 1020.4
20260905151410 34 276 16.1 24.1 0.00 0.00 0.00 11 1020.5
20260905150910 34 270 24.1 29.0 0.00 0.00 0.00 11 1020.4
20260905150411 35 309 22.5 29.0 0.00 0.00 0.00 11 1020.5
20260905145910 35 315 24.1 29.0 0.00 0.00 0.00 11 1020.3
20260905145411 35 337 11.3 12.9 0.00 0.00 0.00 11 1020.4
20260905144910 35 283 8.0 20.9 0.00 0.00 0.00 11 1020.4
20260905144409 34 292 12.9 20.9 0.00 0.00 0.00 11 1020.3
20260905143910 35 280 27.4 37.0 0.00 0.00 0.00 11 1020.4
20260905143411 35 286 14.5 27.4 0.00 0.00 0.00 11 1020.4
20260905142911 35 315 16.1 32.2 0.00 0.00 0.00 11 1020.4
20260905142410 35 249 16.1 46.7 0.00 0.00 0.00 11 1020.3
20260905141909 35 292 29.0 37.0 0.00 0.00 0.00 11 1020.4
20260905141411 35 302 20.9 27.4 0.00 0.00 0.00 11 1020.4
20260905140910 35 280 16.1 32.2 0.00 0.00 0.00 11 1020.5
20260905140409 35 294 20.9 29.0 0.00 0.00 0.00 11 1020.4
20260905135911 35 3 24.1 33.8 0.00 0.00 0.00 12 1020.4
20260905135410 35 290 19.3 29.0 0.00 0.00 0.00 12 1020.5
20260905134909 35 0 20.9 27.4 0.00 0.00 0.00 12 1020.3
20260905134411 35 282 12.9 20.9 0.00 0.00 0.00 12 1020.5
20260905133910 35 315 20.9 24.1 0.00 0.00 0.00 12 1020.5
20260905133410 35 301 19.3 25.7 0.00 0.00 0.00 13 1020.5
20260905132911 35 263 12.9 19.3 0.00 0.00 0.00 12 1020.6
20260905132410 35 287 24.1 32.2 0.00 0.00 0.00 13 1020.6
20260905131910 35 262 11.3 16.1 0.00 0.00 0.00 12 1020.7
20260905131411 35 270 12.9 20.9 0.00 0.00 0.00 13 1020.7
20260905130910 35 248 11.3 14.5 0.00 0.00 0.00 13 1020.8
20260905130411 35 57 11.3 16.1 0.00 0.00 0.00 12 1020.7
20260905125910 35 315 19.3 25.7 0.00 0.00 0.00 12 1020.7
20260905125410 35 298 14.5 24.1 0.00 0.00 0.00 13 1020.7
20260905124911 35 278 22.5 32.2 0.00 0.00 0.00 13 1020.8
20260905124410 35 284 22.5 32.2 0.00 0.00 0.00 13 1020.8
20260905123909 35 285 16.1 27.4 0.00 0.00 0.00 14 1021.0
20260905123411 35 8 16.1 20.9 0.00 0.00 0.00 13 1020.8
20260905122911 35 251 14.5 20.9 0.00 0.00 0.00 13 1021.0
20260905122410 35 302 20.9 29.0 0.00 0.00 0.00 13 1020.9
20260905121910 35 290 14.5 25.7 0.00 0.00 0.00 13 1020.9
20260905121411 35 10 19.3 27.4 0.00 0.00 0.00 13 1021.0
20260905120910 34 347 19.3 32.2 0.00 0.00 0.00 13 1020.8
20260905120410 35 244 11.3 14.5 0.00 0.00 0.00 13 1020.9
20260905115911 35 270 19.3 25.7 0.00 0.00 0.00 13 1020.8
20260905115410 35 298 12.9 19.3 0.00 0.00 0.00 13 1020.9
20260905114910 35 312 11.3 16.1 0.00 0.00 0.00 13 1020.9
20260905114411 35 270 19.3 24.1 0.00 0.00 0.00 13 1021.0
20260905113911 34 286 8.0 16.1 0.00 0.00 0.00 13 1020.8
20260905113410 34 290 12.9 24.1 0.00 0.00 0.00 13 1021.0
20260905112911 34 318 19.3 27.4 0.00 0.00 0.00 13 1020.9
20260905112411 35 343 24.1 32.2 0.00 0.00 0.00 13 1021.0
20260905111910 35 315 24.1 33.8 0.00 0.00 0.00 13 1021.0
20260905111409 34 314 16.1 27.4 0.00 0.00 0.00 13 1021.1
20260905110911 34 230 14.5 24.1 0.00 0.00 0.00 13 1021.2
20260905110410 34 277 24.1 32.2 0.00 0.00 0.00 13 1021.4
20260905105909 34 270 14.5 16.1 0.00 0.00 0.00 13 1021.3
20260905105411 34 289 14.5 25.7 0.00 0.00 0.00 13 1021.4
20260905104910 34 334 27.4 37.0 0.00 0.00 0.00 13 1021.4
20260905104411 33 270 22.5 32.2 0.00 0.00 0.00 14 1021.4
20260905103910 34 289 12.9 20.9 0.00 0.00 0.00 14 1021.2
20260905103410 33 298 16.1 35.4 0.00 0.00 0.00 13 1021.3
20260905102911 34 248 22.5 32.2 0.00 0.00 0.00 14 1021.5
20260905102410 34 270 27.4 41.8 0.00 0.00 0.00 14 1021.5
20260905101910 34 270 19.3 32.2 0.00 0.00 0.00 14 1021.5
20260905101409 33 265 9.7 12.9 0.00 0.00 0.00 14 1021.4
20260905100910 33 304 24.1 33.8 0.00 0.00 0.00 14 1021.5
20260905100412 33 315 33.8 46.7 0.00 0.00 0.00 14 1021.5
20260905095910 33 45 25.7 37.0 0.00 0.00 0.00 14 1021.5
20260905095410 33 307 27.4 37.0 0.00 0.00 0.00 14 1021.5
20260905094909 33 288 11.3 27.4 0.00 0.00 0.00 13 1021.5
20260905094411 33 271 20.9 33.8 0.00 0.00 0.00 14 1021.5
20260905093910 33 270 20.9 27.4 0.00 0.00 0.00 13 1021.6
20260905093410 33 270 16.1 24.1 0.00 0.00 0.00 13 1021.7
20260905092911 33 267 12.9 24.1 0.00 0.00 0.00 14 1021.4
20260905092411 32 315 25.7 33.8 0.00 0.00 0.00 13 1021.5
20260905091910 32 135 19.3 27.4 0.00 0.00 0.00 13 1021.6
20260905091410 32 135 19.3 27.4 0.00 0.00 0.00 13 1021.6
20260905090911 32 135 24.1 32.2 0.00 0.00 0.00 13 1021.6
20260905090411 32 135 20.9 29.0 0.00 0.00 0.00 13 1021.7
20260905085910 32 135 12.9 16.1 0.00 0.00 0.00 13 1021.7